Weather History for Weslaco, TX

Change the Weather History Date:

Tuesday, December 13, 2011

  Actual Average (KMFE) Record (KMFE)
Temperature  
Mean Temperature 70 °F 62 °F  
Max Temperature 80 °F 72 °F 88 °F (1981)
Min Temperature 60 °F 52 °F 28 °F (1903)
Degree Days  
Heating Degree Days 0 6  
Month to date heating degree days 61  
Since 1 July heating degree days 121  
Cooling Degree Days 5 3  
Month to date cooling degree days 41  
Year to date cooling degree days 4410  
Growing Degree Days 20 (Base 50)    
Moisture  
Dew Point 64 °F    
Average Humidity 87    
Maximum Humidity 100    
Minimum Humidity 58    
Precipitation  
Precipitation 0.07 in 0.04 in 0.73 in (1963)
Month to date precipitation 0.46  
Year to date precipitation 21.47  
Sea Level Pressure  
Sea Level Pressure 30.12 in    
Wind  
Wind Speed 4 mph (SSE)    
Max Wind Speed 17 mph    
Max Gust Speed 23 mph    
Visibility 6 miles    
Events Fog , Rain    
T = Trace of Precipitation, MM = Missing Value Source: NWS Daily Summary

Daily Weather History Graph

Daily Weather History Graph

Search for Another Location

Airport:

Trip Planner

Search our weather history database for the weather conditions in past years. The results will help you decide how hot, cold, wet, or windy it might be!

Date:

Astronomy

Dec. 13, 2011 Rise Set
Actual Time 7:10 AM CST 5:41 PM CST
Civil Twilight 6:45 AM CST 6:06 PM CST
Nautical Twilight 6:16 AM CST 6:35 PM CST
Astronomical Twilight 5:48 AM CST 7:03 PM CST
Moon 8:46 PM CST (12/13) 9:30 AM CST (12/13)
Length of Visible Light 11h 21m
Length of Day
10h 31m
Waning Gibbous, 90% of the Moon is Illuminated
Dec 13
Waning Gibbous
Dec 17
Last Quarter
Dec 24
New
Jan 1
First Quarter
Jan 9
Full

Hourly Weather History & Observations

Time (CST) Temp. Heat Index Dew Point Humidity Pressure Visibility Wind Dir Wind Speed Gust Speed Precip Events Conditions
12:15 AM 62.6 °F - 60.8 °F 94% 30.16 in 4.0 mi Calm Calm - N/A   Overcast
12:35 AM 62.6 °F - 60.8 °F 94% 30.16 in 4.0 mi Calm Calm - N/A   Overcast
12:55 AM 62.6 °F - 60.8 °F 94% 30.15 in 4.0 mi Calm Calm - N/A   Mostly Cloudy
1:15 AM 62.6 °F - 60.8 °F 94% 30.14 in 5.0 mi Calm Calm - N/A   Mostly Cloudy
1:35 AM 62.6 °F - 60.8 °F 94% 30.14 in 4.0 mi Calm Calm - N/A   Mostly Cloudy
1:55 AM 62.6 °F - 60.8 °F 94% 30.14 in 4.0 mi Calm Calm - N/A   Overcast
2:15 AM 62.6 °F - 60.8 °F 94% 30.14 in 4.0 mi Calm Calm - N/A   Overcast
2:35 AM 62.6 °F - 60.8 °F 94% 30.13 in 4.0 mi Calm Calm - N/A   Mostly Cloudy
2:55 AM 60.8 °F - 60.8 °F 100% 30.13 in 3.0 mi Calm Calm - N/A   Mostly Cloudy
3:15 AM 60.8 °F - 59.0 °F 94% 30.12 in 1.0 mi Calm Calm - N/A   Overcast
3:35 AM 60.8 °F - 60.8 °F 100% 30.13 in 1.8 mi Calm Calm - N/A   Overcast
3:55 AM 60.8 °F - 59.0 °F 94% 30.13 in 2.0 mi Calm Calm - N/A   Overcast
4:15 AM 60.8 °F - 60.8 °F 100% 30.12 in 3.0 mi Calm Calm - N/A   Overcast
4:35 AM 60.8 °F - 60.8 °F 100% 30.12 in 3.0 mi Calm Calm - N/A   Overcast
4:55 AM 60.8 °F - 60.8 °F 100% 30.12 in 2.5 mi Calm Calm - N/A   Overcast
5:15 AM 60.8 °F - 60.8 °F 100% 30.12 in 1.0 mi Calm Calm - N/A   Overcast
5:35 AM 60.8 °F - 59.0 °F 94% 30.12 in 0.2 mi Calm Calm - N/A Fog Fog
5:55 AM 60.8 °F - 59.0 °F 94% 30.12 in 0.2 mi NNE 3.5 mph - N/A Fog Fog
6:15 AM 60.8 °F - 59.0 °F 94% 30.13 in 0.5 mi Calm Calm - N/A Fog Fog
6:35 AM 60.8 °F - 60.8 °F 100% 30.13 in 1.5 mi Calm Calm - N/A   Overcast
6:55 AM 60.8 °F - 60.8 °F 100% 30.14 in 3.0 mi Calm Calm - N/A   Overcast
7:15 AM 60.8 °F - 59.0 °F 94% 30.14 in 1.8 mi Calm Calm - N/A   Mostly Cloudy
7:35 AM 60.8 °F - 59.0 °F 94% 30.15 in 1.5 mi Calm Calm - N/A   Mostly Cloudy
7:55 AM 62.6 °F - 60.8 °F 94% 30.16 in 4.0 mi Calm Calm - N/A   Overcast
8:15 AM 62.6 °F - 60.8 °F 94% 30.16 in 3.0 mi Calm Calm - N/A Rain Light Rain
8:35 AM 62.6 °F - 60.8 °F 94% 30.17 in 3.0 mi Calm Calm - 0.01 in Rain Light Rain
9:15 AM 64.4 °F - 64.4 °F 100% 30.18 in 4.0 mi Calm Calm - 0.01 in   Overcast
9:35 AM 68.0 °F - 66.2 °F 94% 30.18 in 7.0 mi SSE 5.8 mph - 0.01 in   Mostly Cloudy
9:55 AM 68.0 °F - 66.2 °F 94% 30.18 in 7.0 mi SE 4.6 mph - 0.01 in   Overcast
10:15 AM 71.6 °F - 68.0 °F 88% 30.18 in 10.0 mi SSE 6.9 mph - N/A   Mostly Cloudy
10:35 AM 73.4 °F - 68.0 °F 83% 30.18 in 10.0 mi South 8.1 mph - N/A   Mostly Cloudy
10:55 AM 77.0 °F - 68.0 °F 74% 30.17 in 10.0 mi South 11.5 mph 16.1 mph N/A   Mostly Cloudy
11:15 AM 75.2 °F - 68.0 °F 78% 30.16 in 10.0 mi SSE 11.5 mph - N/A   Overcast
11:35 AM 77.0 °F - 68.0 °F 74% 30.15 in 10.0 mi SSE 11.5 mph 16.1 mph N/A   Overcast
11:55 AM 77.0 °F - 68.0 °F 74% 30.14 in 10.0 mi South 12.7 mph 19.6 mph N/A   Overcast
12:15 PM 78.8 °F - 68.0 °F 69% 30.13 in 10.0 mi South 11.5 mph - N/A   Mostly Cloudy
12:35 PM 80.6 °F 83.2 °F 68.0 °F 65% 30.11 in 10.0 mi South 15.0 mph 23.0 mph N/A   Mostly Cloudy
1:15 PM 80.6 °F 82.7 °F 66.2 °F 61% 30.09 in 10.0 mi South 17.3 mph 23.0 mph N/A   Mostly Cloudy
1:35 PM 80.6 °F 82.3 °F 64.4 °F 58% 30.08 in 10.0 mi SSE 17.3 mph 23.0 mph N/A   Mostly Cloudy
1:55 PM 80.6 °F 82.3 °F 64.4 °F 58% 30.07 in 10.0 mi SSE 16.1 mph 21.9 mph N/A   Mostly Cloudy
2:15 PM 78.8 °F - 66.2 °F 65% 30.06 in 10.0 mi SSE 13.8 mph - N/A   Mostly Cloudy
2:35 PM 78.8 °F - 66.2 °F 65% 30.06 in 10.0 mi SSE 16.1 mph 21.9 mph N/A   Mostly Cloudy
2:55 PM 78.8 °F - 66.2 °F 65% 30.06 in 10.0 mi SSE 13.8 mph - N/A   Mostly Cloudy
3:15 PM 78.8 °F - 66.2 °F 65% 30.06 in 10.0 mi SSE 16.1 mph 23.0 mph N/A   Overcast
3:35 PM 78.8 °F - 66.2 °F 65% 30.06 in 10.0 mi SSE 13.8 mph 17.3 mph N/A   Overcast
3:55 PM 78.8 °F - 66.2 °F 65% 30.06 in 10.0 mi SSE 17.3 mph 20.7 mph N/A   Overcast
4:15 PM 77.0 °F - 66.2 °F 69% 30.06 in 10.0 mi SSE 11.5 mph 16.1 mph N/A   Overcast
4:35 PM 77.0 °F - 68.0 °F 74% 30.06 in 10.0 mi SSE 12.7 mph 19.6 mph N/A   Overcast
4:55 PM 71.6 °F - 69.8 °F 94% 30.07 in 3.0 mi SSE 12.7 mph 19.6 mph 0.04 in Rain Light Rain
5:15 PM 71.6 °F - 68.0 °F 88% 30.07 in 10.0 mi SSE 8.1 mph - N/A   Overcast
5:35 PM 71.6 °F - 68.0 °F 88% 30.07 in 10.0 mi SSE 6.9 mph - N/A   Overcast
5:55 PM 71.6 °F - 68.0 °F 88% 30.07 in 10.0 mi SSE 6.9 mph - N/A   Overcast
6:15 PM 71.6 °F - 69.8 °F 94% 30.07 in 10.0 mi SE 6.9 mph - N/A   Overcast
6:35 PM 71.6 °F - 69.8 °F 94% 30.08 in 7.0 mi SSE 6.9 mph - N/A Rain Rain
6:55 PM 71.6 °F - 69.8 °F 94% 30.08 in 10.0 mi SE 8.1 mph - 0.01 in   Overcast
7:15 PM 71.6 °F - 69.8 °F 94% 30.08 in 10.0 mi SE 6.9 mph - N/A   Overcast
7:35 PM 71.6 °F - 69.8 °F 94% 30.08 in 10.0 mi SE 11.5 mph - N/A   Overcast
7:55 PM 71.6 °F - 69.8 °F 94% 30.08 in 10.0 mi SE 9.2 mph - N/A   Overcast
8:15 PM 71.6 °F - 69.8 °F 94% 30.08 in 10.0 mi SE 10.4 mph - N/A   Mostly Cloudy
8:35 PM 71.6 °F - 69.8 °F 94% 30.08 in 10.0 mi SE 9.2 mph 17.3 mph N/A   Overcast
9:15 PM 71.6 °F - 68.0 °F 88% 30.08 in 10.0 mi SSE 11.5 mph - N/A   Overcast
9:35 PM 71.6 °F - 68.0 °F 88% 30.08 in 10.0 mi SE 13.8 mph 18.4 mph N/A   Overcast
9:55 PM 71.6 °F - 68.0 °F 88% 30.08 in 10.0 mi SSE 13.8 mph 18.4 mph N/A   Overcast
10:15 PM 71.6 °F - 68.0 °F 88% 30.08 in 10.0 mi SSE 12.7 mph 17.3 mph N/A   Overcast
10:35 PM 71.6 °F - 68.0 °F 88% 30.07 in 10.0 mi SSE 15.0 mph - N/A   Overcast
10:55 PM 71.6 °F - 68.0 °F 88% 30.07 in 10.0 mi SSE 17.3 mph 23.0 mph N/A   Overcast
11:15 PM 71.6 °F - 68.0 °F 88% 30.07 in 10.0 mi SSE 15.0 mph 23.0 mph N/A   Overcast
11:35 PM 71.6 °F - 68.0 °F 88% 30.07 in 10.0 mi SSE 15.0 mph 19.6 mph N/A   Overcast
11:55 PM 71.6 °F - 68.0 °F 88% 30.06 in 10.0 mi SSE 12.7 mph 18.4 mph N/A   Overcast